Regional Weather Roundup
Issued by NWS San Diego, CA

Home | Current Version | Previous Version | Text Only | Print | Product List | Glossary On
Versions: 1 2 3 4 5 6 7 8 9 10 11 12 13 14 15 16 17 18 19 20 21 22 23 24 25 26 27 28 29 30 31 32 33 34 35 36 37 38 39 40 41 42 43 44 45 46 47 48 49 50
000
ASUS46 KSGX 191710
RWRSGX

SAN DIEGO HOURLY WEATHER ROUNDUP
NATIONAL WEATHER SERVICE SAN DIEGO CA
1000 AM PDT FRI SEP 19 2014

NOTE: "FAIR" INDICATES FEW OR NO CLOUDS BELOW 12,000 FEET WITH NO
SIGNIFICANT WEATHER AND/OR OBSTRUCTIONS TO VISIBILITY.

CAZ042-043-060-061-PZZ750-775-191800-

GREATER SAN DIEGO AREA

CITY           SKY/WX    TMP DP  RH WIND       PRES   REMARKS
LINDBERGH FLD  CLOUDY    73  63  70 NW9       29.93S
POINT LOMA       N/A     70  62  77 NW12        N/A
NATIONAL CITY    N/A     73  66  78 NW1       29.92S
CHULA VISTA      N/A     73  67  81 CALM      29.85S
IMPERIAL BEACH PTSUNNY   72  64  76 NW7       29.92S
BROWN FIELD    CLOUDY    69  66  90 W7        29.93R
MIRAMAR MCAS   PTSUNNY   73  61  65 VRB7      29.92R
MONTGOMERY FLD CLOUDY    73  63  70 W9        29.92S

$$

NORTH SAN DIEGO COUNTY

CITY           SKY/WX    TMP DP  RH WIND       PRES   REMARKS
CAMP PENDLETON PTSUNNY   73  60  63 SW7       29.91S
OCEANSIDE AP   CLOUDY    75  63  66 SW8       29.91R
OCEANSIDE HBR    N/A     72  66  82 W5        29.94S
VISTA            N/A     72  65  77 SW1       29.89S
CARLSBAD       CLOUDY    72  63  73 W7        29.91S
DEL MAR          N/A     73  67  80 CALM      29.94R
LA JOLLA SCRIP   N/A     70  66  86 W2        29.89R
FALLBROOK        N/A     73  67  83 CALM      29.92S
ESCONDIDO        N/A     75  63  66 SE1       29.92S
SAN MARCOS       N/A     72  65  77 CALM      29.89R
POWAY            N/A     74  64  73 SW3       29.91S

$$

EAST SAN DIEGO COUNTY

CITY           SKY/WX    TMP DP  RH WIND       PRES   REMARKS
RAMONA         CLOUDY    70  60  70 CALM      29.94S
SANTEE LAKES     N/A     73  64  73 CALM      29.92S
LA MESA          N/A     72  66  83 CALM      29.85S
JAMUL            N/A     70  65  83 CALM      29.89S
DESCANSO N       N/A     68  59  71 W3        29.78S
MT. LAGUNA OBS   N/A     63  45  52 W5        29.68R
CAMPO            N/A     67  58  72 S6        29.94S

$$

ORANGE COUNTY AND THE LOS ANGELES BASIN

CITY           SKY/WX    TMP DP  RH WIND       PRES   REMARKS
JOHN WAYNE AP  PTSUNNY   76  60  57 VRB3      29.91S
LAGUNA BEACH     N/A    N/A  18   0 S3        29.88R
LAKE FOREST FR   N/A     71  62  71 CALM      29.82S
SANTA ANA        N/A     74  66  75 CALM      29.86S
HUNTINGTON BCH   N/A     74  65  73 W3        29.94R
LOS ALAMITOS   MOSUNNY   74  61  63 VRB2      29.91S
FULLERTON      CLOUDY    75  61  61 CALM      29.90S
LONG BEACH     MOSUNNY   74  61  63 VRB3      29.91S
L.A. AP        PTSUNNY   72  61  68 S5        29.92S
L.A. DOWNTOWN  CLOUDY    73  62  68 CALM      29.91S

$$

THE INLAND EMPIRE

CITY           SKY/WX    TMP DP  RH WIND       PRES   REMARKS
CORONA         CLOUDY    73  63  71 CALM      29.93S
CHINO          PTSUNNY   74  62  66 NW3       29.94R
ONTARIO        PTSUNNY   73  61  65 S7        29.93S
SAN BERNARDINO CLOUDY    68  57  68 W7        29.94R
RIVERSIDE AP   CLOUDY    71  61  70 CALM      29.93S
RIV CYN CREST    N/A     70  69  96 SE1       29.90S
MORENO VALLEY    N/A     69  64  84 CALM      29.13R
MARCH ARB      CLOUDY    70  60  69 SW2       29.95S
HORSETHIEF CYN   N/A     68  58  71 NE1       29.92S
PERRIS           N/A     71  61  72 S2        29.93R
MENIFEE          N/A     71  62  73 W3        30.00R
HEMET EAST       N/A     67  59  76 CALM      29.89R
FRENCH VALLEY  CLOUDY    70  61  73 SW7       29.94S
TEMECULA         N/A     71  64  77 W3        29.89S

$$

SAN BERNARDINO AND RIVERSIDE COUNTY MOUNTAINS

CITY           SKY/WX    TMP DP  RH WIND       PRES   REMARKS
BIG BEAR AP    SUNNY     63  36  36 E7        30.13R
ANGELUS OAKS     N/A     60  45  57 CALM      29.77R
PINE COVE        N/A     64  52  65 W1        29.75R

$$

SOUTHERN DESERT INCLUDING THE COACHELLA VALLEY

CITY           SKY/WX    TMP DP  RH WIND       PRES   REMARKS
PALM SPRINGS   SUNNY     86  57  37 CALM      29.83R
THOUSAND PALMS   N/A     85  59  40 W7        29.78R
PALM DESERT      N/A     86  63  46 CALM      26.21
THERMAL        SUNNY     89  59  36 NW9       29.77S
BLYTHE         SUNNY     85  61  44 VRB3      29.81R
IMPERIAL AP    SUNNY     88  58  36 W10       29.79R
EL CENTRO NAS  MOSUNNY   89  55  31 W10       29.79R
YUMA AZ        MOSUNNY   90  54  29 NW5       29.81R
MEXICALI       SUNNY     90  54  29 W7        29.81

$$

UPPER DESERT

CITY           SKY/WX    TMP DP  RH WIND       PRES   REMARKS
VICTORVILLE AP SUNNY     72  52  49 W5        29.97R
HESPERIA         N/A     72  55  55 CALM      29.95R
APPLE VALLEY     N/A     75  52  44 CALM      30.03S
PALMDALE       SUNNY     74  53  48 CALM      29.94S
LANCASTER      SUNNY     74  51  44 SW7       29.93F
EDWARDS AFB    SUNNY     74  52  46 SW8       29.91S
DAGGETT        SUNNY     78  52  40 W9        29.92S
29 PALMS N     SUNNY     80  51  36 W8        29.97S
NEEDLES        SUNNY     91  50  24 CALM      29.82R

$$

REGIONAL REPORTS

CITY           SKY/WX    TMP DP  RH WIND       PRES   REMARKS
SANTA BARBARA  PTSUNNY   70  63  78 S8        29.91S
SANDBERG       SUNNY     68  51  54 N12G18    30.03S
MT. WILSON       N/A     66  50  55 CALM        N/A
LAS VEGAS NV   MOSUNNY   84  45  25 VRB3      29.86R
PHOENIX AZ     MOSUNNY   88  68  51 CALM      29.84R
TIJUANA        CLOUDY    68  63  83 W8        29.95R FOG

$$

OFFSHORE ISLANDS

CITY           SKY/WX    TMP DP  RH WIND       PRES   REMARKS
CATALINA ARPT  MOSUNNY   65  56  72 CALM      29.95S
SAN CLEMENTE I PTSUNNY   71  56  58 W7        29.94S
SAN NICOLAS IS PTSUNNY  N/A N/A N/A W21       29.92S

$$

MARINE AND OFFSHORE BUOY REPORTS

STATION/POSITION SKY/WX   TEMP    WIND        PRES    SWELL
                          AIR SEA DIR/SP/G            HT/PER/DIR
                          (F)     (DEG/KT/KT) (MB)    (FT/S/D)
TANNER BANKS               67 70  330/ 10/ 12 1013.4R   7/210/15
S CLEMENTE BASIN           70 74  320/  6/ 10 1013.1R   5/210/15
SAN NICOLAS IS.               68                N/A     5/190/14
SO. S. ROSA ISLA           67 69  330/ 14/ 16 1012.7R   7/10
W. S. BARBARA CH           62 59  300/ 10/ 12 1012.4S   5/300/11
M. S. BARBARA CH           65 65   50/  6/  8 1012.8
S. MONICA BASIN            69 72  110/ 10/ 12 1012.4R   3/230/15
S PEDRO CHANNEL               72                N/A     2/190/14
DANA POINT                    70                N/A     2/190/15
CMP PENDLETON NS              71                N/A     3/210/15
OCEANSIDE OFFSHR              73                N/A     3/220/15
TORREY PINES OTR              73                N/A     3/200/15
LA JOLLA 1                 71 67  320/  8/  9 1013.2S
MISSION BAY BUOY              72                N/A     3/210/15
SAN DIEGO BAY                 75              1013.6S

$$



USA.gov is the U.S. government's official web portal to all federal, state and local government web resources and services.